Location: De Greiden
(52.9496°N, 5.9137°E)
Time: 23:38:05
(UTC+00:00)

NOSS 3-1 (A) - Pass Details

Date: 24 January 2021
Orbit: 735 x 1477 km, 63.4° (Epoch: 26 February)

Event Time Altitude Azimuth Distance (km) Brightness Sun altitude
Rises 18:45:52 0° 313° (NW) 3,872 7.3 -23.6°
Reaches altitude 10° 18:48:22 10° 310° (NW) 3,013 6.7 -24.0°
Maximum altitude 18:55:36 65° 231° (SW) 1,391 4.4 -25.1°
Enters shadow 19:02:48 15° 154° (SSE) 3,081 5.8 -26.2°
